Flag for U.S.A. Weather past 2 weeks in Sidney, Montana, U.S.A.

Now
34 °F

Clear.


Feels Like: 34 °F
Forecast: 36 / 64 °F
Wind: No wind

Location: Sidney-Richland


UV Index: 3 (Moderate)

Visibility: 10 mi


Pressure: 29.92 "Hg

Humidity: 81%

Dew point: 28 °F

Location of SidneyLocation

Historic Weather in Sidney

°F

Sidney temperature yesterday

Maximum temperature yesterday: 61 °F (at 3:35 PM)
Minimum temperature yesterday: 32 °F (at 4:35 AM)
Average temperature yesterday: 46 °F

Past Weeks' High & Low Weather Summary

 TemperatureHumidityPressure
High70 °F (Apr 8, 2:15 PM)100% (Apr 5, 6:15 AM)30.33 "Hg (Apr 5, 6:15 AM)
Low21 °F (Apr 14, 6:35 AM)21% (Apr 10, 5:55 PM)29.55 "Hg (Apr 15, 3:55 PM)
Average41 °F57%29.92 "Hg
* Reported Apr 5 12:15 AM — Apr 20 12:35 AM, Sidney, Weather by CustomWeather, © 2014

Note: Actual official high and low records may vary slightly from our data, if they occured in-between our weather recording intervals... More about our weather records

Advertising

Historic Weather Conditions — Data for Previous 24 hours

 ConditionsComfort  
Time TempWeatherWind HumidityBarometerVisibility
12:35 AM
Apr 20
34 °FClear.5 mph81%29.92 "Hg10 mi
12:15 AM36 °FClear.5 mph75%29.92 "Hg10 mi
11:55 PM
Apr 19
37 °FClear.3 mph75%29.92 "Hg10 mi
11:35 PM36 °FClear.5 mph75%29.92 "Hg10 mi
11:15 PM36 °FClear.3 mph81%29.92 "Hg10 mi
10:55 PM37 °FClear.No wind75%29.92 "Hg10 mi
10:35 PM39 °FClear.No wind70%29.93 "Hg10 mi
10:15 PM37 °FClear.No wind75%29.93 "Hg10 mi
9:55 PM39 °FClear.No wind70%29.93 "Hg10 mi
9:35 PM39 °FClear.No wind70%29.93 "Hg10 mi
8:55 PM43 °FClear.3 mph61%29.93 "Hg10 mi
8:35 PM45 °FSunny.No wind57%29.93 "Hg10 mi
8:15 PM46 °FSunny.No wind53%29.92 "Hg10 mi
7:55 PM48 °FSunny.3 mph50%29.92 "Hg10 mi
7:35 PM54 °FSunny.5 mph41%29.92 "Hg10 mi
7:15 PM57 °FSunny.7 mph36%29.92 "Hg10 mi
6:55 PM59 °FSunny.7 mph34%29.92 "Hg10 mi
6:35 PM61 °FSunny.8 mph31%29.92 "Hg10 mi
5:55 PM61 °FSunny.10 mph31%29.93 "Hg10 mi
5:35 PM61 °FPassing clouds.12 mph34%29.93 "Hg10 mi
4:55 PM59 °FPassing clouds.12 mph34%29.93 "Hg10 mi
4:35 PM61 °FPassing clouds.15 mph34%29.93 "Hg10 mi
4:15 PM61 °FPassing clouds.16 mph36%29.93 "Hg10 mi
3:55 PM61 °FPassing clouds.10 mph36%29.93 "Hg10 mi
3:35 PM61 °FSunny.13 mph39%29.94 "Hg10 mi
3:15 PM59 °FSunny.13 mph39%29.94 "Hg10 mi
2:55 PM59 °FPassing clouds.14 mph42%29.94 "Hg10 mi
2:35 PM57 °FScattered clouds.15 mph44%29.94 "Hg10 mi
2:15 PM57 °FPartly sunny.13 mph44%29.95 "Hg10 mi
1:55 PM57 °FPartly sunny.17 mph44%29.95 "Hg10 mi
1:35 PM55 °FOvercast.16 mph47%29.95 "Hg10 mi
1:15 PM55 °FPartly sunny.15 mph44%29.96 "Hg10 mi
12:55 PM55 °FPartly sunny.13 mph47%29.95 "Hg10 mi
12:35 PM54 °FMostly cloudy.14 mph54%29.95 "Hg10 mi
12:15 PM52 °FPartly sunny.16 mph50%29.95 "Hg10 mi
11:55 AM54 °FScattered clouds.13 mph51%29.95 "Hg10 mi
11:35 AM52 °FPartly sunny.15 mph54%29.95 "Hg10 mi
11:15 AM48 °FPartly sunny.14 mph62%29.95 "Hg10 mi
10:55 AM48 °FPassing clouds.17 mph66%29.95 "Hg10 mi
10:35 AM46 °FPartly sunny.17 mph66%29.93 "Hg10 mi
10:15 AM45 °FOvercast.18 mph71%29.93 "Hg10 mi
9:55 AM45 °FOvercast.15 mph66%29.93 "Hg10 mi
9:35 AM45 °FPartly sunny.21 mph71%29.92 "Hg10 mi
9:15 AM43 °FScattered clouds.20 mph76%29.91 "Hg10 mi
8:55 AM41 °FOvercast.18 mph76%29.91 "Hg10 mi
8:35 AM43 °FOvercast.17 mph71%29.90 "Hg10 mi
8:15 AM43 °FPartly sunny.22 mph76%29.89 "Hg10 mi
7:55 AM43 °FSunny.20 mph71%29.87 "Hg10 mi
7:35 AM41 °FSunny.22 mph81%29.85 "Hg10 mi
7:15 AM39 °FSunny.18 mph81%29.85 "Hg10 mi
6:55 AM39 °FClear.21 mph75%29.84 "Hg10 mi
6:35 AM39 °FClear.22 mph75%29.83 "Hg10 mi
6:15 AM39 °FClear.22 mph75%29.81 "Hg10 mi
5:55 AM39 °FClear.18 mph75%29.80 "Hg10 mi
5:35 AM39 °FPassing clouds.14 mph65%29.80 "Hg10 mi
5:15 AM37 °FPassing clouds.10 mph70%29.80 "Hg10 mi
4:55 AM32 °FPassing clouds.5 mph87%29.79 "Hg10 mi
4:35 AM32 °FClear.8 mph87%29.78 "Hg10 mi
4:15 AM34 °FClear.9 mph81%29.77 "Hg10 mi
3:55 AM34 °FClear.8 mph81%29.77 "Hg10 mi
3:35 AM37 °FClear.8 mph70%29.77 "Hg10 mi
2:55 AM37 °FClear.10 mph75%29.77 "Hg10 mi
2:35 AM39 °FClear.10 mph75%29.76 "Hg10 mi
1:55 AM39 °FClear.13 mph81%29.76 "Hg10 mi
1:35 AM39 °FClear.12 mph81%29.77 "Hg10 mi
1:15 AM39 °FClear.13 mph87%29.77 "Hg10 mi
Weather by CustomWeather, © 2014

See weather overview